Simultaneous Nadir Overpasses (SNOs) Predictions

Prediction of SNOs between AURA and NPP Satellite Orbit:

Table of predicted SNOs for the next 14.0 days since TLE Epoch: 6/10/2023
Index Date (AURA) Time (AURA) Lat,Lon (AURA) SZA (AURA ) Date (NPP) Time (NPP) Lat,Lon (NPP) SZA (NPP ) Distance(km) Time Diff (sec)
1 06/10/2023 03:05:32 79.67, 32.25 69.40 06/10/2023 03:04:56 79.67, 32.20 69.44 0.84 36
2 06/10/2023 03:54:51 -79.93,-158.12 111.01 06/10/2023 03:55:33 -79.93,-158.08 111.04 0.84 42
3 06/12/2023 18:31:32 -79.74, -18.79 110.86 06/12/2023 18:31:02 -79.74, -18.79 110.84 0.17 30
4 06/12/2023 19:20:51 79.96, 150.59 68.80 06/12/2023 19:21:39 79.96, 150.66 68.75 1.34 48
5 06/15/2023 09:57:32 79.73, -70.35 69.05 06/15/2023 09:57:09 79.73, -70.40 69.08 0.96 23
6 06/15/2023 10:46:52 -79.95, 99.06 111.31 06/15/2023 10:47:47 -79.96, 99.07 111.35 0.30 55
7 06/18/2023 01:23:30 -79.81,-121.26 111.14 06/18/2023 01:23:14 -79.81,-121.15 111.15 2.34 16
8 06/18/2023 02:12:51 79.95, 47.53 68.64 06/18/2023 02:13:54 79.94, 47.42 68.61 2.17 63
9 06/20/2023 16:49:29 79.77,-173.05 68.91 06/20/2023 16:49:22 79.76,-173.14 68.93 1.69 7
10 06/20/2023 17:38:49 -79.99, -3.59 111.45 06/20/2023 17:40:00 -79.99, -3.63 111.50 0.82 71
11 06/23/2023 07:28:07 73.95, -55.44 76.15 06/23/2023 07:26:54 74.26, -57.32 76.42 66.96 73



Historial Predications of SNOs between AURA and NPP
